Location: Ch?enovice
(49.7164°N, 15.2160°E)
Time: 22:13:01
(UTC+00:00)

SL-27 R/B - Pass Details

Date: 23 May 2024
Orbit: 327 x 351 km, 74.7° (Epoch: 22 June)

Event Time Altitude Azimuth Distance (km) Brightness Sun altitude
Exits shadow 01:12:33 16° 156° (SSE) 980 3.8 -13.4°
Maximum altitude 01:14:09 27° 105° (ESE) 669 3.4 -13.3°
Drops below altitude 10° 01:16:34 10° 44° (NE) 1,263 6.1 -13.0°
Sets 01:18:39 0° 32° (NNE) 2,104 7.9 -12.9°
